GW719 Weather Reports


Display with metric or nautical units.
time (UTC)temp
F
wind
direction
speed
MPH
gust
MPH
rain 1hr
in
rain 24hr
in
rain mn
in
humidity
%
barometer
mb
20260505225518 54 23 5.0 10.0 0.00 0.00 0.00 71 1007.9
20260505224518 54 25 6.0 12.0 0.00 0.00 0.00 71 1007.8
20260505223518 54 16 4.0 9.0 0.00 0.00 0.00 70 1007.5
20260505222518 55 13 4.0 9.0 0.00 0.00 0.00 70 1007.4
20260505221519 55 18 4.0 8.0 0.00 0.00 0.00 70 1007.1
20260505220515 55 32 5.0 16.0 0.00 0.00 0.00 71 1006.9
20260505215516 55 24 5.0 11.0 0.00 0.00 0.00 71 1007.1
20260505214516 55 15 4.0 8.0 0.00 0.00 0.00 72 1007.3
20260505213516 55 16 5.0 11.0 0.00 0.00 0.00 72 1007.1
20260505212516 55 26 4.0 11.0 0.00 0.00 0.00 73 1007.4
20260505211517 55 41 4.0 7.0 0.00 0.00 0.00 73 1007.2
20260505210517 55 8 5.0 11.0 0.00 0.00 0.00 73 1006.9
20260505205517 55 6 4.0 7.0 0.00 0.00 0.00 74 1006.6
20260505204517 55 12 4.0 7.0 0.00 0.00 0.00 75 1006.7
20260505203518 55 15 4.0 8.0 0.00 0.00 0.00 76 1007.1
20260505202517 55 12 4.0 9.0 0.00 0.00 0.00 76 1007.2
20260505201518 55 13 4.0 8.0 0.00 0.00 0.00 77 1006.8
20260505200521 56 3 5.0 9.0 0.00 0.00 0.00 76 1006.6
20260505195520 56 24 4.0 8.0 0.00 0.00 0.00 76 1006.6
20260505194521 56 5 4.0 7.0 0.00 0.00 0.00 76 1006.5
20260505193701 56 7 5.0 8.0 0.00 0.00 0.00 76 1006.6
20260505192541 56 12 3.0 7.0 0.00 0.00 0.00 78 1006.6
20260505191521 56 9 3.0 8.0 0.00 0.00 0.00 79 1006.3
20260505190522 56 21 3.0 6.0 0.00 0.00 0.00 79 1006.2
20260505185536 56 15 3.0 7.0 0.00 0.00 0.00 80 1006.2
20260505184519 56 10 3.0 5.0 0.00 0.00 0.00 80 1006.0
20260505183516 56 15 4.0 8.0 0.00 0.00 0.00 80 1006.1
20260505182516 56 6 3.0 6.0 0.00 0.00 0.00 81 1006.0
20260505181517 56 16 3.0 7.0 0.00 0.00 0.00 82 1006.1
20260505180516 56 10 3.0 7.0 0.00 0.00 0.00 83 1006.1
20260505175517 57 9 4.0 8.0 0.00 0.00 0.00 83 1005.9
20260505174517 57 4 4.0 10.0 0.00 0.00 0.00 83 1005.2
20260505173537 57 9 5.0 9.0 0.00 0.00 0.00 83 1005.2
20260505172517 57 12 4.0 8.0 0.00 0.00 0.00 83 1005.1
20260505171518 57 21 4.0 7.0 0.00 0.00 0.00 84 1005.1
20260505170518 57 13 5.0 9.0 0.00 0.00 0.00 84 1005.2
20260505165517 58 13 5.0 13.0 0.00 0.00 0.00 84 1004.6
20260505164538 58 13 5.0 9.0 0.00 0.00 0.00 84 1004.7
20260505163518 58 18 5.0 9.0 0.00 0.00 0.00 84 1004.3
20260505162518 59 15 4.0 8.0 0.00 0.00 0.00 84 1004.4
20260505161515 59 10 4.0 12.0 0.00 0.00 0.00 83 1004.3
20260505160516 60 14 5.0 9.0 0.00 0.00 0.00 83 1004.1
20260505152516 68 11 4.0 9.0 0.00 0.00 0.00 81 1003.0
20260505151517 70 18 4.0 7.0 0.00 0.00 0.00 79 1002.7
20260505150517 71 34 2.0 5.0 0.00 0.00 0.00 78 1002.4
20260505140518 69 164 3.0 6.0 0.00 0.00 0.00 79 1001.7
20260505124516 68 101 5.0 10.0 0.00 0.00 0.00 80 1002.2
20260505123516 67 100 4.0 9.0 0.00 0.00 0.00 80 1002.2
20260505122516 67 106 4.0 8.0 0.00 0.00 0.00 80 1001.9
20260505121517 67 85 4.0 7.0 0.00 0.00 0.00 80 1001.8
20260505120517 67 84 5.0 9.0 0.00 0.00 0.00 80 1001.8
20260505115517 67 91 5.0 10.0 0.00 0.00 0.00 81 1001.8
20260505114517 67 77 7.0 14.0 0.00 0.00 0.00 80 1001.7
20260505113517 67 76 7.0 11.0 0.00 0.00 0.00 81 1001.6
20260505112517 67 61 2.0 4.0 0.00 0.00 0.00 81 1001.6
20260505111517 67 34 2.0 5.0 0.00 0.00 0.00 80 1001.5
20260505110558 67 65 1.0 6.0 0.00 0.00 0.00 80 1001.2
20260505101536 68 93 4.0 8.0 0.00 0.00 0.00 79 1000.6
20260505100516 68 86 4.0 8.0 0.00 0.00 0.00 79 1000.5
20260505095516 68 109 4.0 8.0 0.00 0.00 0.00 79 1000.3
20260505094556 68 94 4.0 10.0 0.00 0.00 0.00 78 1000.4
20260505093516 69 97 4.0 7.0 0.00 0.00 0.00 77 1000.3
20260505092518 69 100 4.0 7.0 0.00 0.00 0.00 77 1000.4
20260505091616 69 104 3.0 8.0 0.00 0.00 0.00 77 1000.4
20260505090517 69 93 2.0 7.0 0.00 0.00 0.00 77 1000.5
20260505085517 69 108 4.0 8.0 0.00 0.00 0.00 77 1000.5
20260505084517 69 99 3.0 7.0 0.00 0.00 0.00 76 1000.6
20260505083517 69 95 3.0 7.0 0.00 0.00 0.00 76 1000.7
20260505082517 69 96 4.0 9.0 0.00 0.00 0.00 75 1000.7
20260505081617 69 88 3.0 7.0 0.00 0.00 0.00 75 1000.8
20260505080518 69 79 4.0 8.0 0.00 0.00 0.00 75 1000.7
20260505075518 69 93 3.0 7.0 0.00 0.00 0.00 75 1000.9
20260505074518 70 75 4.0 8.0 0.00 0.00 0.00 74 1001.1
20260505073518 70 74 5.0 8.0 0.00 0.00 0.00 74 1001.2
20260505072518 70 81 3.0 6.0 0.00 0.00 0.00 74 1001.3
20260505071518 70 64 2.0 4.0 0.00 0.00 0.00 75 1001.5
20260505070518 70 76 2.0 4.0 0.00 0.00 0.00 75 1001.5
20260505065517 69 73 2.0 5.0 0.00 0.00 0.00 75 1001.5
20260505064517 69 68 1.0 6.0 0.00 0.00 0.00 75 1001.8
20260505063517 70 21 1.0 3.0 0.00 0.00 0.00 75 1002.0
20260505062519 70 14 2.0 3.0 0.00 0.00 0.00 74 1001.8
20260505061518 71 58 1.0 3.0 0.00 0.00 0.00 72 1001.3
20260505060518 70 162 2.0 5.0 0.00 0.00 0.00 72 1001.0
20260505055518 70 164 2.0 6.0 0.00 0.00 0.00 72 1000.9
20260505054518 70 167 2.0 6.0 0.00 0.00 0.00 72 1001.1
20260505053538 71 162 2.0 5.0 0.00 0.00 0.00 71 1001.1
20260505052536 71 160 3.0 7.0 0.00 0.00 0.00 70 1001.3
20260505051516 71 176 4.0 9.0 0.00 0.00 0.00 70 1001.4
20260505050516 70 172 3.0 9.0 0.00 0.00 0.00 70 1001.2
20260505041517 71 182 5.0 9.0 0.00 0.00 0.00 67 1001.1
20260505040517 71 174 7.0 12.0 0.00 0.00 0.00 66 1001.4
20260505035517 71 167 4.0 9.0 0.00 0.00 0.00 67 1001.7
20260505034557 70 169 5.0 9.0 0.00 0.00 0.00 67 1001.5
20260505033517 70 173 4.0 10.0 0.00 0.00 0.00 69 1002.0
20260505032517 71 167 4.0 9.0 0.00 0.00 0.00 67 1002.2
20260505031518 71 174 5.0 10.0 0.00 0.00 0.00 64 1002.3
20260505030518 71 174 4.0 8.0 0.00 0.00 0.00 64 1002.2
20260505025520 72 175 3.0 7.0 0.00 0.00 0.00 64 1002.3
20260505024518 72 165 3.0 7.0 0.00 0.00 0.00 64 1002.4
20260505023519 72 174 4.0 6.0 0.00 0.00 0.00 63 1002.5
20260505022518 72 168 3.0 6.0 0.00 0.00 0.00 63 1002.5
20260505021518 72 164 3.0 7.0 0.00 0.00 0.00 63 1002.5
20260505020516 73 152 3.0 9.0 0.00 0.00 0.00 62 1002.5
20260505015516 73 163 4.0 8.0 0.00 0.00 0.00 62 1002.4
20260505014516 74 156 2.0 6.0 0.00 0.00 0.00 62 1002.3
20260505013516 74 175 3.0 9.0 0.00 0.00 0.00 61 1002.4
20260505012516 74 172 2.0 5.0 0.00 0.00 0.00 61 1002.4
20260505011517 75 174 3.0 7.0 0.00 0.00 0.00 60 1002.3
20260505010517 75 163 3.0 8.0 0.00 0.00 0.00 60 1002.2
20260505005517 75 171 3.0 8.0 0.00 0.00 0.00 59 1002.1
20260505004517 76 182 4.0 8.0 0.00 0.00 0.00 58 1002.2
20260505003537 76 166 4.0 7.0 0.00 0.00 0.00 58 1002.3
20260505002517 76 170 5.0 11.0 0.00 0.00 0.00 57 1002.2
20260505001518 77 176 7.0 13.0 0.00 0.00 0.00 57 1002.4
20260505000518 77 184 5.0 13.0 0.00 0.00 0.00 57 1002.6
20260504235518 77 180 6.0 12.0 0.00 0.00 0.00 57 1002.6
20260504234518 78 185 6.0 11.0 0.00 0.00 0.00 57 1002.6
20260504233518 78 183 7.0 14.0 0.00 0.00 0.00 56 1002.6
20260504232519 78 181 7.0 13.0 0.00 0.00 0.00 57 1002.6
20260504231516 78 176 7.0 13.0 0.00 0.00 0.00 56 1002.6
20260504230516 79 173 5.0 11.0 0.00 0.00 0.00 56 1002.6